Year,Month,Day,Hour,Minute,Value (Times are PST for temperature in C)
2016,08,19,00,00,19.50
2016,08,19,00,01,19.50
2016,08,19,00,02,19.50
2016,08,19,00,03,19.50
2016,08,19,00,04,19.50
2016,08,19,00,05,19.60
2016,08,19,00,06,19.60
2016,08,19,00,07,19.60
2016,08,19,00,08,19.60
2016,08,19,00,09,19.60
2016,08,19,00,10,19.60
2016,08,19,00,11,19.50
2016,08,19,00,12,19.50
2016,08,19,00,13,19.50
2016,08,19,00,14,19.50
2016,08,19,00,15,19.50
2016,08,19,00,16,19.50
2016,08,19,00,17,19.50
2016,08,19,00,18,19.50
2016,08,19,00,19,19.50
2016,08,19,00,20,19.50
2016,08,19,00,21,19.50
2016,08,19,00,22,19.50
2016,08,19,00,23,19.50
2016,08,19,00,24,19.40
2016,08,19,00,25,19.40
2016,08,19,00,26,19.40
2016,08,19,00,27,19.30
2016,08,19,00,28,19.30
2016,08,19,00,29,19.30
2016,08,19,00,30,19.20
2016,08,19,00,31,19.20
2016,08,19,00,32,19.10
2016,08,19,00,33,19.10
2016,08,19,00,34,19.10
2016,08,19,00,35,19.10
2016,08,19,00,36,19.10
2016,08,19,00,37,19.10
2016,08,19,00,38,19.10
2016,08,19,00,39,19.00
2016,08,19,00,40,18.90
2016,08,19,00,41,18.90
2016,08,19,00,42,18.90
2016,08,19,00,43,18.90
2016,08,19,00,44,18.90
2016,08,19,00,45,18.90
2016,08,19,00,46,18.90
2016,08,19,00,47,18.90
2016,08,19,00,48,18.90
2016,08,19,00,49,18.90
2016,08,19,00,50,18.90
2016,08,19,00,51,18.90
2016,08,19,00,52,18.90
2016,08,19,00,53,18.90
2016,08,19,00,54,19.00
2016,08,19,00,55,19.10
2016,08,19,00,56,19.10
2016,08,19,00,57,19.10
2016,08,19,00,58,19.10
2016,08,19,00,59,19.10
2016,08,19,01,00,19.10
2016,08,19,01,01,19.10
2016,08,19,01,02,19.10
2016,08,19,01,03,19.10
2016,08,19,01,04,19.10
2016,08,19,01,05,19.10
2016,08,19,01,06,19.10
2016,08,19,01,07,19.10
2016,08,19,01,08,19.10
2016,08,19,01,09,19.10
2016,08,19,01,10,19.10
2016,08,19,01,11,19.10
2016,08,19,01,12,19.10
2016,08,19,01,13,19.10
2016,08,19,01,14,19.10
2016,08,19,01,15,19.10
2016,08,19,01,16,19.10
2016,08,19,01,17,19.10
2016,08,19,01,18,19.10
2016,08,19,01,19,19.20
2016,08,19,01,20,19.20
2016,08,19,01,21,19.20
2016,08,19,01,22,19.20
2016,08,19,01,23,19.20
2016,08,19,01,24,19.20
2016,08,19,01,25,19.30
2016,08,19,01,26,19.30
2016,08,19,01,27,19.30
2016,08,19,01,28,19.30
2016,08,19,01,29,19.30
2016,08,19,01,30,19.40
2016,08,19,01,31,19.40
2016,08,19,01,32,19.50
2016,08,19,01,33,19.60
2016,08,19,01,34,19.60
2016,08,19,01,35,19.70
2016,08,19,01,36,19.70
2016,08,19,01,37,19.70
2016,08,19,01,38,19.80
2016,08,19,01,39,19.80
2016,08,19,01,40,19.80
2016,08,19,01,41,19.80
2016,08,19,01,42,19.90
2016,08,19,01,43,19.90
2016,08,19,01,44,19.90
2016,08,19,01,45,20.00
2016,08,19,01,46,20.10
2016,08,19,01,47,20.20
2016,08,19,01,48,20.20
2016,08,19,01,49,20.20
2016,08,19,01,50,20.30
2016,08,19,01,51,20.20
2016,08,19,01,52,20.20
2016,08,19,01,53,20.20
2016,08,19,01,54,20.20
2016,08,19,01,55,20.20
2016,08,19,01,56,20.20
2016,08,19,01,57,20.10
2016,08,19,01,58,20.10
2016,08,19,01,59,20.00
2016,08,19,02,00,19.90
2016,08,19,02,01,19.90
2016,08,19,02,02,19.90
2016,08,19,02,03,19.90
2016,08,19,02,04,19.90
2016,08,19,02,05,19.90
2016,08,19,02,06,19.80
2016,08,19,02,07,19.80
2016,08,19,02,08,19.70
2016,08,19,02,09,19.70
2016,08,19,02,10,19.60
2016,08,19,02,11,19.60
2016,08,19,02,12,19.60
2016,08,19,02,13,19.60
2016,08,19,02,14,19.60
2016,08,19,02,15,19.60
2016,08,19,02,16,19.60
2016,08,19,02,17,19.70
2016,08,19,02,18,19.90
2016,08,19,02,19,19.90
2016,08,19,02,20,19.90
2016,08,19,02,21,19.90
2016,08,19,02,22,19.90
2016,08,19,02,23,19.90
2016,08,19,02,24,19.90
2016,08,19,02,25,19.90
2016,08,19,02,26,19.90
2016,08,19,02,27,19.80
2016,08,19,02,28,19.70
2016,08,19,02,29,19.60
2016,08,19,02,30,19.50
2016,08,19,02,31,19.40
2016,08,19,02,32,19.40
2016,08,19,02,33,19.30
2016,08,19,02,34,19.20
2016,08,19,02,35,19.10
2016,08,19,02,36,19.10
2016,08,19,02,37,19.00
2016,08,19,02,38,18.90
2016,08,19,02,39,18.90
2016,08,19,02,40,18.90
2016,08,19,02,41,18.80
2016,08,19,02,42,18.80
2016,08,19,02,43,18.80
2016,08,19,02,44,18.70
2016,08,19,02,45,18.70
2016,08,19,02,46,18.70
2016,08,19,02,47,18.70
2016,08,19,02,48,18.60
2016,08,19,02,49,18.60
2016,08,19,02,50,18.60
2016,08,19,02,51,18.60
2016,08,19,02,52,18.60
2016,08,19,02,53,18.60
2016,08,19,02,54,18.50
2016,08,19,02,55,18.50
2016,08,19,02,56,18.50
2016,08,19,02,57,18.50
2016,08,19,02,58,18.50
2016,08,19,02,59,18.50
2016,08,19,03,00,18.50
2016,08,19,03,01,18.40
2016,08,19,03,02,18.40
2016,08,19,03,03,18.40
2016,08,19,03,04,18.40
2016,08,19,03,05,18.40
2016,08,19,03,06,18.40
2016,08,19,03,07,18.50
2016,08,19,03,08,18.50
2016,08,19,03,09,18.60
2016,08,19,03,10,18.60
2016,08,19,03,11,18.70
2016,08,19,03,12,18.70
2016,08,19,03,13,18.80
2016,08,19,03,14,18.90
2016,08,19,03,15,18.90
2016,08,19,03,16,18.90
2016,08,19,03,17,19.00
2016,08,19,03,18,19.10
2016,08,19,03,19,19.20
2016,08,19,03,20,19.30
2016,08,19,03,21,19.40
2016,08,19,03,22,19.60
2016,08,19,03,23,19.70
2016,08,19,03,24,19.90
2016,08,19,03,25,20.10
2016,08,19,03,26,20.20
2016,08,19,03,27,20.30
2016,08,19,03,28,20.40
2016,08,19,03,29,20.50
2016,08,19,03,30,20.50
2016,08,19,03,31,20.60
2016,08,19,03,32,20.60
2016,08,19,03,33,20.50
2016,08,19,03,34,20.30
2016,08,19,03,35,20.20
2016,08,19,03,36,20.10
2016,08,19,03,37,20.00
2016,08,19,03,38,19.90
2016,08,19,03,39,19.90
2016,08,19,03,40,19.90
2016,08,19,03,41,19.90
2016,08,19,03,42,19.80
2016,08,19,03,43,19.80
2016,08,19,03,44,19.70
2016,08,19,03,45,19.60
2016,08,19,03,46,19.50
2016,08,19,03,47,19.50
2016,08,19,03,48,19.50
2016,08,19,03,49,19.40
2016,08,19,03,50,19.40
2016,08,19,03,51,19.30
2016,08,19,03,52,19.20
2016,08,19,03,53,19.20
2016,08,19,03,54,19.20
2016,08,19,03,55,19.20
2016,08,19,03,56,19.10
2016,08,19,03,57,19.10
2016,08,19,03,58,19.10
2016,08,19,03,59,19.10
2016,08,19,04,00,18.90
2016,08,19,04,01,18.90
2016,08,19,04,02,19.10
2016,08,19,04,03,19.10
2016,08,19,04,04,19.10
2016,08,19,04,05,19.10
2016,08,19,04,06,19.10
2016,08,19,04,07,19.10
2016,08,19,04,08,19.10
2016,08,19,04,09,19.20
2016,08,19,04,10,19.30
2016,08,19,04,11,19.40
2016,08,19,04,12,19.50
2016,08,19,04,13,19.60
2016,08,19,04,14,19.80
2016,08,19,04,15,20.00
2016,08,19,04,16,20.10
2016,08,19,04,17,20.10
2016,08,19,04,18,20.00
2016,08,19,04,19,19.80
2016,08,19,04,20,19.50
2016,08,19,04,21,19.30
2016,08,19,04,22,19.10
2016,08,19,04,23,19.00
2016,08,19,04,24,18.90
2016,08,19,04,25,18.90
2016,08,19,04,26,18.90
2016,08,19,04,27,19.00
2016,08,19,04,28,19.10
2016,08,19,04,29,19.20
2016,08,19,04,30,19.30
2016,08,19,04,31,19.40
2016,08,19,04,32,19.50
2016,08,19,04,33,19.50
2016,08,19,04,34,19.60
2016,08,19,04,35,19.70
2016,08,19,04,36,19.80
2016,08,19,04,37,20.00
2016,08,19,04,38,20.20
2016,08,19,04,39,20.40
2016,08,19,04,40,20.60
2016,08,19,04,41,20.60
2016,08,19,04,42,20.50
2016,08,19,04,43,20.40
2016,08,19,04,44,20.30
2016,08,19,04,45,20.20
2016,08,19,04,46,20.20
2016,08,19,04,47,20.20
2016,08,19,04,48,20.30
2016,08,19,04,49,20.40
2016,08,19,04,50,20.50
2016,08,19,04,51,20.50
2016,08,19,04,52,20.50
2016,08,19,04,53,20.60
2016,08,19,04,54,20.70
2016,08,19,04,55,20.90
2016,08,19,04,56,21.10
2016,08,19,04,57,21.30
2016,08,19,04,58,21.40
2016,08,19,04,59,21.50
2016,08,19,05,00,21.60
2016,08,19,05,01,21.60
2016,08,19,05,02,21.80
2016,08,19,05,03,21.80
2016,08,19,05,04,21.80
2016,08,19,05,05,21.80
2016,08,19,05,06,21.80
2016,08,19,05,07,21.70
2016,08,19,05,08,21.70
2016,08,19,05,09,21.60
2016,08,19,05,10,21.60
2016,08,19,05,11,21.60
2016,08,19,05,12,21.70
2016,08,19,05,13,21.60
2016,08,19,05,14,21.50
2016,08,19,05,15,21.40
2016,08,19,05,16,21.30
2016,08,19,05,17,21.30
2016,08,19,05,18,21.30
2016,08,19,05,19,21.30
2016,08,19,05,20,21.30
2016,08,19,05,21,21.30
2016,08,19,05,22,21.40
2016,08,19,05,23,21.50
2016,08,19,05,24,21.60
2016,08,19,05,25,21.60
2016,08,19,05,26,21.60
2016,08,19,05,27,21.80
2016,08,19,05,28,21.90
2016,08,19,05,29,21.90
2016,08,19,05,30,22.00
2016,08,19,05,31,22.00
2016,08,19,05,32,22.10
2016,08,19,05,33,22.10
2016,08,19,05,34,22.10
2016,08,19,05,35,22.10
2016,08,19,05,36,22.20
2016,08,19,05,37,22.30
2016,08,19,05,38,22.30
2016,08,19,05,39,22.40
2016,08,19,05,40,22.40
2016,08,19,05,41,22.50
2016,08,19,05,42,22.60
2016,08,19,05,43,22.70
2016,08,19,05,44,22.80
2016,08,19,05,45,22.90
2016,08,19,05,46,22.90
2016,08,19,05,47,22.90
2016,08,19,05,48,22.90
2016,08,19,05,49,23.10
2016,08,19,05,50,23.10
2016,08,19,05,51,23.10
2016,08,19,05,52,23.10
2016,08,19,05,53,23.10
2016,08,19,05,54,23.10
2016,08,19,05,55,23.10
2016,08,19,05,56,23.10
2016,08,19,05,57,23.10
2016,08,19,05,58,23.10
2016,08,19,05,59,23.00
2016,08,19,06,00,22.90
2016,08,19,06,01,22.90
2016,08,19,06,02,22.80
2016,08,19,06,03,22.80
2016,08,19,06,04,22.70
2016,08,19,06,05,22.60
2016,08,19,06,06,22.50
2016,08,19,06,07,22.50
2016,08,19,06,08,22.50
2016,08,19,06,09,22.40
2016,08,19,06,10,22.40
2016,08,19,06,11,22.30
2016,08,19,06,12,22.30
2016,08,19,06,13,22.20
2016,08,19,06,14,22.20
2016,08,19,06,15,22.00
2016,08,19,06,16,21.70
2016,08,19,06,17,21.50
2016,08,19,06,18,21.20
2016,08,19,06,19,21.00
2016,08,19,06,20,20.90
2016,08,19,06,21,20.80
2016,08,19,06,22,20.70
2016,08,19,06,23,20.60
2016,08,19,06,24,20.50
2016,08,19,06,25,20.50
2016,08,19,06,26,20.40
2016,08,19,06,27,20.30
2016,08,19,06,28,20.30
2016,08,19,06,29,20.20
2016,08,19,06,30,20.20
2016,08,19,06,31,20.20
2016,08,19,06,32,20.20
2016,08,19,06,33,20.20
2016,08,19,06,34,20.20
2016,08,19,06,35,20.10
2016,08,19,06,36,20.10
2016,08,19,06,37,20.10
2016,08,19,06,38,20.10
2016,08,19,06,39,20.00
2016,08,19,06,40,19.90
2016,08,19,06,41,19.90
2016,08,19,06,42,19.90
2016,08,19,06,43,19.90
2016,08,19,06,44,19.90
2016,08,19,06,45,19.90
2016,08,19,06,46,19.90
2016,08,19,06,47,19.90
2016,08,19,06,48,19.80
2016,08,19,06,49,19.80
2016,08,19,06,50,19.80
2016,08,19,06,51,19.70
2016,08,19,06,52,19.70
2016,08,19,06,53,19.80
2016,08,19,06,54,19.80
2016,08,19,06,55,19.80
2016,08,19,06,56,19.80
2016,08,19,06,57,19.80
2016,08,19,06,58,19.90
2016,08,19,06,59,20.00
2016,08,19,07,00,20.10
2016,08,19,07,01,20.20
2016,08,19,07,02,20.30
2016,08,19,07,03,20.40
2016,08,19,07,04,20.50
2016,08,19,07,05,20.60
2016,08,19,07,06,20.70
2016,08,19,07,07,20.80
2016,08,19,07,08,20.80
2016,08,19,07,09,20.90
2016,08,19,07,10,20.90
2016,08,19,07,11,20.90
2016,08,19,07,12,20.90
2016,08,19,07,13,20.90
2016,08,19,07,14,20.90
2016,08,19,07,15,20.90
2016,08,19,07,16,20.90
2016,08,19,07,17,20.80
2016,08,19,07,18,20.80
2016,08,19,07,19,20.70
2016,08,19,07,20,20.70
2016,08,19,07,21,20.70
2016,08,19,07,22,20.70
2016,08,19,07,23,20.70
2016,08,19,07,24,20.80
2016,08,19,07,25,20.80
2016,08,19,07,26,20.80
2016,08,19,07,27,20.80
2016,08,19,07,28,20.80
2016,08,19,07,29,20.90
2016,08,19,07,30,20.90
2016,08,19,07,31,20.90
2016,08,19,07,32,20.90
2016,08,19,07,33,20.90
2016,08,19,07,34,21.00
2016,08,19,07,35,21.00
2016,08,19,07,36,21.10
2016,08,19,07,37,21.20
2016,08,19,07,38,21.30
2016,08,19,07,39,21.30
2016,08,19,07,40,21.40
2016,08,19,07,41,21.60
2016,08,19,07,42,21.60
2016,08,19,07,43,21.70
2016,08,19,07,44,21.80
2016,08,19,07,45,21.90
2016,08,19,07,46,21.90
2016,08,19,07,47,22.00
2016,08,19,07,48,22.10
2016,08,19,07,49,22.10
2016,08,19,07,50,22.10
2016,08,19,07,51,22.10
2016,08,19,07,52,22.10
2016,08,19,07,53,22.10
2016,08,19,07,54,22.10
2016,08,19,07,55,22.20
2016,08,19,07,56,22.30
2016,08,19,07,57,22.40
2016,08,19,07,58,22.50
2016,08,19,07,59,22.60
2016,08,19,08,00,22.60
2016,08,19,08,01,22.70
2016,08,19,08,02,22.80
2016,08,19,08,03,22.80
2016,08,19,08,04,22.80
2016,08,19,08,05,22.80
2016,08,19,08,06,22.90
2016,08,19,08,07,22.90
2016,08,19,08,08,22.90
2016,08,19,08,09,22.90
2016,08,19,08,10,23.00
2016,08,19,08,11,23.10
2016,08,19,08,12,23.10
2016,08,19,08,13,23.10
2016,08,19,08,14,23.10
2016,08,19,08,15,23.10
2016,08,19,08,16,23.00
2016,08,19,08,17,22.90
2016,08,19,08,18,22.90
2016,08,19,08,19,22.90
2016,08,19,08,20,22.90
2016,08,19,08,21,22.90
2016,08,19,08,22,22.80
2016,08,19,08,23,22.80
2016,08,19,08,24,22.80
2016,08,19,08,25,22.90
2016,08,19,08,26,22.90
2016,08,19,08,27,22.90
2016,08,19,08,28,22.90
2016,08,19,08,29,23.00
2016,08,19,08,30,23.10
2016,08,19,08,31,23.10
2016,08,19,08,32,23.10
2016,08,19,08,33,23.10
2016,08,19,08,34,23.10
2016,08,19,08,35,23.10
2016,08,19,08,36,23.10
2016,08,19,08,37,23.10
2016,08,19,08,38,23.10
2016,08,19,08,39,23.10
2016,08,19,08,40,23.20
2016,08,19,08,41,23.20
2016,08,19,08,42,23.30
2016,08,19,08,43,23.30
2016,08,19,08,44,23.30
2016,08,19,08,45,23.50
2016,08,19,08,46,23.60
2016,08,19,08,47,23.70
2016,08,19,08,48,23.70
2016,08,19,08,49,23.70
2016,08,19,08,50,23.70
2016,08,19,08,51,23.70
2016,08,19,08,52,23.70
2016,08,19,08,53,23.70
2016,08,19,08,54,23.80
2016,08,19,08,55,23.80
2016,08,19,08,56,23.90
2016,08,19,08,57,23.90
2016,08,19,08,58,24.10
2016,08,19,08,59,24.10
2016,08,19,09,00,24.10
2016,08,19,09,01,24.20
2016,08,19,09,02,24.40
2016,08,19,09,03,24.50
2016,08,19,09,04,24.60
2016,08,19,09,05,24.80
2016,08,19,09,06,24.90
2016,08,19,09,07,25.00
2016,08,19,09,08,25.10
2016,08,19,09,09,25.20
2016,08,19,09,10,25.30
2016,08,19,09,11,25.40
2016,08,19,09,12,25.40
2016,08,19,09,13,25.50
2016,08,19,09,14,25.50
2016,08,19,09,15,25.60
2016,08,19,09,16,25.60
2016,08,19,09,17,25.60
2016,08,19,09,18,25.70
2016,08,19,09,19,25.70
2016,08,19,09,20,25.70
2016,08,19,09,21,25.80
2016,08,19,09,22,25.80
2016,08,19,09,23,26.00
2016,08,19,09,24,26.10
2016,08,19,09,25,26.30
2016,08,19,09,26,26.40
2016,08,19,09,27,26.50
2016,08,19,09,28,26.70
2016,08,19,09,29,26.80
2016,08,19,09,30,27.00
2016,08,19,09,31,27.10
2016,08,19,09,32,27.30
2016,08,19,09,33,27.30
2016,08,19,09,34,27.50
2016,08,19,09,35,27.60
2016,08,19,09,36,27.70
2016,08,19,09,37,27.80
2016,08,19,09,38,28.00
2016,08,19,09,39,28.10
2016,08,19,09,40,28.10
2016,08,19,09,41,28.10
2016,08,19,09,42,28.20
2016,08,19,09,43,28.20
2016,08,19,09,44,28.20
2016,08,19,09,45,28.30
2016,08,19,09,46,28.30
2016,08,19,09,47,28.30
2016,08,19,09,48,28.30
2016,08,19,09,49,28.30
2016,08,19,09,50,28.30
2016,08,19,09,51,28.30
2016,08,19,09,52,28.20
2016,08,19,09,53,28.20
2016,08,19,09,54,28.30
2016,08,19,09,55,28.30
2016,08,19,09,56,28.40
2016,08,19,09,57,28.40
2016,08,19,09,58,28.40
2016,08,19,09,59,28.40
2016,08,19,10,00,28.40
2016,08,19,10,01,28.40
2016,08,19,10,02,28.40
2016,08,19,10,03,28.30
2016,08,19,10,04,28.30
2016,08,19,10,05,28.30
2016,08,19,10,06,28.30
2016,08,19,10,07,28.30
2016,08,19,10,08,28.30
2016,08,19,10,09,28.30
2016,08,19,10,10,28.30
2016,08,19,10,11,28.30
2016,08,19,10,12,28.30
2016,08,19,10,13,28.30
2016,08,19,10,14,28.40
2016,08,19,10,15,28.40
2016,08,19,10,16,28.40
2016,08,19,10,17,28.40
2016,08,19,10,18,28.40
2016,08,19,10,19,28.40
2016,08,19,10,20,28.50
2016,08,19,10,21,28.60
2016,08,19,10,22,28.60
2016,08,19,10,23,28.60
2016,08,19,10,24,28.60
2016,08,19,10,25,28.60
2016,08,19,10,26,28.60
2016,08,19,10,27,28.70
2016,08,19,10,28,28.60
2016,08,19,10,29,28.60
2016,08,19,10,30,28.60
2016,08,19,10,31,28.70
2016,08,19,10,32,28.70
2016,08,19,10,33,28.70
2016,08,19,10,34,28.70
2016,08,19,10,35,28.70
2016,08,19,10,36,28.70
2016,08,19,10,37,28.80
2016,08,19,10,38,28.80
2016,08,19,10,39,28.80
2016,08,19,10,40,28.90
2016,08,19,10,41,28.90
2016,08,19,10,42,28.90
2016,08,19,10,43,28.90
2016,08,19,10,44,28.90
2016,08,19,10,45,28.90
2016,08,19,10,46,28.90
2016,08,19,10,47,28.90
2016,08,19,10,48,29.00
2016,08,19,10,49,29.10
2016,08,19,10,50,29.10
2016,08,19,10,51,29.10
2016,08,19,10,52,29.20
2016,08,19,10,53,29.20
2016,08,19,10,54,29.20
2016,08,19,10,55,29.20
2016,08,19,10,56,29.20
2016,08,19,10,57,29.30
2016,08,19,10,58,29.40
2016,08,19,10,59,29.40
2016,08,19,11,00,29.50
2016,08,19,11,01,29.60
2016,08,19,11,02,29.60
2016,08,19,11,03,29.70
2016,08,19,11,04,29.70
2016,08,19,11,05,29.80
2016,08,19,11,06,29.80
2016,08,19,11,07,29.80
2016,08,19,11,08,29.80
2016,08,19,11,09,29.80
2016,08,19,11,10,29.70
2016,08,19,11,11,29.70
2016,08,19,11,12,29.70
2016,08,19,11,13,29.80
2016,08,19,11,14,29.80
2016,08,19,11,15,29.70
2016,08,19,11,16,29.70
2016,08,19,11,17,29.70
2016,08,19,11,18,29.80
2016,08,19,11,19,29.80
2016,08,19,11,20,29.90
2016,08,19,11,21,29.90
2016,08,19,11,22,29.90
2016,08,19,11,23,29.90
2016,08,19,11,24,29.90
2016,08,19,11,25,29.90
2016,08,19,11,26,29.90
2016,08,19,11,27,29.90
2016,08,19,11,28,29.80
2016,08,19,11,29,29.80
2016,08,19,11,30,29.90
2016,08,19,11,31,29.90
2016,08,19,11,32,29.90
2016,08,19,11,33,30.00
2016,08,19,11,34,29.90
2016,08,19,11,35,29.90
2016,08,19,11,36,30.00
2016,08,19,11,37,30.10
2016,08,19,11,38,30.10
2016,08,19,11,39,30.10
2016,08,19,11,40,30.10
2016,08,19,11,41,30.10
2016,08,19,11,42,30.30
2016,08,19,11,43,30.30
2016,08,19,11,44,30.30
2016,08,19,11,45,30.30
2016,08,19,11,46,30.30
2016,08,19,11,47,30.30
2016,08,19,11,48,30.30
2016,08,19,11,49,30.30
2016,08,19,11,50,30.30
2016,08,19,11,51,30.30
2016,08,19,11,52,30.20
2016,08,19,11,53,30.20
2016,08,19,11,54,30.10
2016,08,19,11,55,30.10
2016,08,19,11,56,30.00
2016,08,19,11,57,30.00
2016,08,19,11,58,30.10
2016,08,19,11,59,30.10
2016,08,19,12,00,30.10
2016,08,19,12,01,30.10
2016,08,19,12,02,30.10
2016,08,19,12,03,30.20
2016,08,19,12,04,30.20
2016,08,19,12,05,30.30
2016,08,19,12,06,30.30
2016,08,19,12,07,30.30
2016,08,19,12,08,30.30
2016,08,19,12,09,30.20
2016,08,19,12,10,30.30
2016,08,19,12,11,30.30
2016,08,19,12,12,30.40
2016,08,19,12,13,30.50
2016,08,19,12,14,30.60
2016,08,19,12,15,30.60
2016,08,19,12,16,30.70
2016,08,19,12,17,30.80
2016,08,19,12,18,30.90
2016,08,19,12,19,30.90
2016,08,19,12,20,30.90
2016,08,19,12,21,30.90
2016,08,19,12,22,31.00
2016,08,19,12,23,31.00
2016,08,19,12,24,31.00
2016,08,19,12,25,31.00
2016,08,19,12,26,31.00
2016,08,19,12,27,31.00
2016,08,19,12,28,31.00
2016,08,19,12,29,31.00
2016,08,19,12,30,30.90
2016,08,19,12,31,30.90
2016,08,19,12,32,30.90
2016,08,19,12,33,30.80
2016,08,19,12,34,30.80
2016,08,19,12,35,30.70
2016,08,19,12,36,30.70
2016,08,19,12,37,30.70
2016,08,19,12,38,30.70
2016,08,19,12,39,30.70
2016,08,19,12,40,30.70
2016,08,19,12,41,30.70
2016,08,19,12,42,30.80
2016,08,19,12,43,30.80
2016,08,19,12,44,30.90
2016,08,19,12,45,31.00
2016,08,19,12,46,31.10
2016,08,19,12,47,31.10
2016,08,19,12,48,31.20
2016,08,19,12,49,31.20
2016,08,19,12,50,31.20
2016,08,19,12,51,31.20
2016,08,19,12,52,31.20
2016,08,19,12,53,31.30
2016,08,19,12,54,31.30
2016,08,19,12,55,31.30
2016,08,19,12,56,31.30
2016,08,19,12,57,31.20
2016,08,19,12,58,31.20
2016,08,19,12,59,31.10
2016,08,19,13,00,31.00
2016,08,19,13,01,31.00
2016,08,19,13,02,30.90
2016,08,19,13,03,30.90
2016,08,19,13,04,30.90
2016,08,19,13,05,31.00
2016,08,19,13,06,31.00
2016,08,19,13,07,31.10
2016,08,19,13,08,31.10
2016,08,19,13,09,31.10
2016,08,19,13,10,31.10
2016,08,19,13,11,31.10
2016,08,19,13,12,31.10
2016,08,19,13,13,31.10
2016,08,19,13,14,31.10
2016,08,19,13,15,31.10
2016,08,19,13,16,31.20
2016,08,19,13,17,31.20
2016,08,19,13,18,31.30
2016,08,19,13,19,31.30
2016,08,19,13,20,31.40
2016,08,19,13,21,31.40
2016,08,19,13,22,31.60
2016,08,19,13,23,31.60
2016,08,19,13,24,31.60
2016,08,19,13,25,31.60
2016,08,19,13,26,31.60
2016,08,19,13,27,31.60
2016,08,19,13,28,31.60
2016,08,19,13,29,31.70
2016,08,19,13,30,31.70
2016,08,19,13,31,31.70
2016,08,19,13,32,31.70
2016,08,19,13,33,31.80
2016,08,19,13,34,31.80
2016,08,19,13,35,31.80
2016,08,19,13,36,31.90
2016,08,19,13,37,31.90
2016,08,19,13,38,32.10
2016,08,19,13,39,32.10
2016,08,19,13,40,32.10
2016,08,19,13,41,32.10
2016,08,19,13,42,32.20
2016,08,19,13,43,32.20
2016,08,19,13,44,32.30
2016,08,19,13,45,32.30
2016,08,19,13,46,32.30
2016,08,19,13,47,32.20
2016,08,19,13,48,32.20
2016,08,19,13,49,32.20
2016,08,19,13,50,32.20
2016,08,19,13,51,32.20
2016,08,19,13,52,32.30
2016,08,19,13,53,32.30
2016,08,19,13,54,32.30
2016,08,19,13,55,32.30
2016,08,19,13,56,32.30
2016,08,19,13,57,32.40
2016,08,19,13,58,32.40
2016,08,19,13,59,32.40
2016,08,19,14,00,32.40
2016,08,19,14,01,32.40
2016,08,19,14,02,32.40
2016,08,19,14,03,32.40
2016,08,19,14,04,32.40
2016,08,19,14,05,32.40
2016,08,19,14,06,32.40
2016,08,19,14,07,32.40
2016,08,19,14,08,32.40
2016,08,19,14,09,32.50
2016,08,19,14,10,32.50
2016,08,19,14,11,32.60
2016,08,19,14,12,32.60
2016,08,19,14,13,32.60
2016,08,19,14,14,32.70
2016,08,19,14,15,32.80
2016,08,19,14,16,32.90
2016,08,19,14,17,33.00
2016,08,19,14,18,33.00
2016,08,19,14,19,32.90
2016,08,19,14,20,32.90
2016,08,19,14,21,32.90
2016,08,19,14,22,33.00
2016,08,19,14,23,33.00
2016,08,19,14,24,33.00
2016,08,19,14,25,33.10
2016,08,19,14,26,33.10
2016,08,19,14,27,33.10
2016,08,19,14,28,33.00
2016,08,19,14,29,33.00
2016,08,19,14,30,33.00
2016,08,19,14,31,33.00
2016,08,19,14,32,33.00
2016,08,19,14,33,33.00
2016,08,19,14,34,33.00
2016,08,19,14,35,33.00
2016,08,19,14,36,33.00
2016,08,19,14,37,33.00
2016,08,19,14,38,33.00
2016,08,19,14,39,33.00
2016,08,19,14,40,33.10
2016,08,19,14,41,33.10
2016,08,19,14,42,33.20
2016,08,19,14,43,33.20
2016,08,19,14,44,33.20
2016,08,19,14,45,33.30
2016,08,19,14,46,33.40
2016,08,19,14,47,33.40
2016,08,19,14,48,33.20
2016,08,19,14,49,33.10
2016,08,19,14,50,33.00
2016,08,19,14,51,33.00
2016,08,19,14,52,32.90
2016,08,19,14,53,32.70
2016,08,19,14,54,32.40
2016,08,19,14,55,32.30
2016,08,19,14,56,32.20
2016,08,19,14,57,32.30
2016,08,19,14,58,32.40
2016,08,19,14,59,32.40
2016,08,19,15,00,32.40
2016,08,19,15,01,32.40
2016,08,19,15,02,32.30
2016,08,19,15,03,32.30
2016,08,19,15,04,32.20
2016,08,19,15,05,32.10
2016,08,19,15,06,32.00
2016,08,19,15,07,31.80
2016,08,19,15,08,31.60
2016,08,19,15,09,31.60
2016,08,19,15,10,31.50
2016,08,19,15,11,31.20
2016,08,19,15,12,31.00
2016,08,19,15,13,30.80
2016,08,19,15,14,30.60
2016,08,19,15,15,30.40
2016,08,19,15,16,30.20
2016,08,19,15,17,30.20
2016,08,19,15,18,30.10
2016,08,19,15,19,29.90
2016,08,19,15,20,29.70
2016,08,19,15,21,29.50
2016,08,19,15,22,29.20
2016,08,19,15,23,28.90
2016,08,19,15,24,28.60
2016,08,19,15,25,28.30
2016,08,19,15,26,28.00
2016,08,19,15,27,27.80
2016,08,19,15,28,27.60
2016,08,19,15,29,27.30
2016,08,19,15,30,27.10
2016,08,19,15,31,27.00
2016,08,19,15,32,26.80
2016,08,19,15,33,26.70
2016,08,19,15,34,26.70
2016,08,19,15,35,26.90
2016,08,19,15,36,27.10
2016,08,19,15,37,27.20
2016,08,19,15,38,27.40
2016,08,19,15,39,27.50
2016,08,19,15,40,27.60
2016,08,19,15,41,27.60
2016,08,19,15,42,27.50
2016,08,19,15,43,27.40
2016,08,19,15,44,27.30
2016,08,19,15,45,27.30
2016,08,19,15,46,27.40
2016,08,19,15,47,27.40
2016,08,19,15,48,27.40
2016,08,19,15,49,27.50
2016,08,19,15,50,27.50
2016,08,19,15,51,27.40
2016,08,19,15,52,27.50
2016,08,19,15,53,27.60
2016,08,19,15,54,27.70
2016,08,19,15,55,27.70
2016,08,19,15,56,27.90
2016,08,19,15,57,28.20
2016,08,19,15,58,28.40
2016,08,19,15,59,28.50
2016,08,19,16,00,28.60
2016,08,19,16,01,28.70
2016,08,19,16,02,28.80
2016,08,19,16,03,28.90
2016,08,19,16,04,28.90
2016,08,19,16,05,29.10
2016,08,19,16,06,29.20
2016,08,19,16,07,29.30
2016,08,19,16,08,29.50
2016,08,19,16,09,29.60
2016,08,19,16,10,29.60
2016,08,19,16,11,29.60
2016,08,19,16,12,29.60
2016,08,19,16,13,29.50
2016,08,19,16,14,29.40
2016,08,19,16,15,29.40
2016,08,19,16,16,29.40
2016,08,19,16,17,29.50
2016,08,19,16,18,29.50
2016,08,19,16,19,29.50
2016,08,19,16,20,29.50
2016,08,19,16,21,29.60
2016,08,19,16,22,29.60
2016,08,19,16,23,29.70
2016,08,19,16,24,29.70
2016,08,19,16,25,29.80
2016,08,19,16,26,29.80
2016,08,19,16,27,29.70
2016,08,19,16,28,29.60
2016,08,19,16,29,29.40
2016,08,19,16,30,29.20
2016,08,19,16,31,29.00
2016,08,19,16,32,28.80
2016,08,19,16,33,28.60
2016,08,19,16,34,28.30
2016,08,19,16,35,28.00
2016,08,19,16,36,27.50
2016,08,19,16,37,27.20
2016,08,19,16,38,26.90
2016,08,19,16,39,26.60
2016,08,19,16,40,26.20
2016,08,19,16,41,25.90
2016,08,19,16,42,25.70
2016,08,19,16,43,25.60
2016,08,19,16,44,25.70
2016,08,19,16,45,25.90
2016,08,19,16,46,25.90
2016,08,19,16,47,26.00
2016,08,19,16,48,26.10
2016,08,19,16,49,26.10
2016,08,19,16,50,26.20
2016,08,19,16,51,26.30
2016,08,19,16,52,26.50
2016,08,19,16,53,26.60
2016,08,19,16,54,26.70
2016,08,19,16,55,26.80
2016,08,19,16,56,27.00
2016,08,19,16,57,27.10
2016,08,19,16,58,27.30
2016,08,19,16,59,27.50
2016,08,19,17,00,27.70
2016,08,19,17,01,27.80
2016,08,19,17,02,27.90
2016,08,19,17,03,27.90
2016,08,19,17,04,28.00
2016,08,19,17,05,27.90
2016,08,19,17,06,27.80
2016,08,19,17,07,27.80
2016,08,19,17,08,27.80
2016,08,19,17,09,27.80
2016,08,19,17,10,27.80
2016,08,19,17,11,27.80
2016,08,19,17,12,27.90
2016,08,19,17,13,27.90
2016,08,19,17,14,27.80
2016,08,19,17,15,27.60
2016,08,19,17,16,27.60
2016,08,19,17,17,27.40
2016,08,19,17,18,27.40
2016,08,19,17,19,27.30